PROSPERO (BLACK ARROW)

导读

普罗斯佩罗号(PROSPERO)是英国于1971年10月28日,使用自主研发的“黑箭”运载火箭,从澳大利亚伍默拉发射场送入太空的技术试验卫星,这次发射让英国成为第六个独立完成卫星入轨的国家。 卫星重66千克,主要用于开展卫星设备测试与微流星体观测实验,设计寿命超百年,至今仍在轨道运行,它也是英国迄今唯一由国产火箭发射的本土卫星,在英国航天史上具有标志性意义。

Basic Information
目录编号:
5580
目录名称:
PROSPERO (BLACK ARROW)
国际标识:
1971-093A
轨道中心:
EARTH
卫星名称:
PROSPERO (BLACK ARROW)
卫星全名:
--
卫星状态:
在轨 (已飞行20043 天)
发射日期:
1971-10-28 UTC
国别 :
英国 (GB)
星等 :
--
This satellite is enrolled in the Space Conjunction Data Service (SCDS) and the current flight risk assessment level is: No High Risk
Orbit Information
数据来源 国际轨道数据 AOE轨道数据
星历时间 2026-09-11T17:14:39+0800
22小时前
查看轨道信息
2026-09-10T06:00:00+0800
2天前
查看轨道信息
半长轴 7265.58km 7265.542km
偏心率 0.0500066 0.0500422
轨道倾角 82.038° 82.038°
近地点辐角 340.125° 344.350°
升交点赤经 215.159° 216.447°
平近点角 18.103° 167.134°
近地点 524.116km 523.821km
远地点 1250.77km 1250.989km
周期 102.722分钟 102.722分钟
每日圈数 14.018365 14.018474
Detailed Information
使用方式:
暂无
2D Orbit Map
3D Orbit Map
Orbit Altitude Analysis Chart
Orbit Inclination Analysis Chart
Orbit Comprehensive Analysis Chart
View Comprehensive Chart
Conjunction Data List
Event ID Objects TCA Miss Dist (km) Collision Risk Probability Collision Risk Index (CRI) Action
CDM_260912-210400-558005-189322
2026-09-12T
21:04:19+0000
0.837 km
远距离
2.245564E-5 中风险 0.62
CDM_260912-153900-558003-030022
2026-09-12T
15:39:30+0000
1.906 km
极远距离
3.04684E-6 低风险 0.45
Miss Distance Evolution Trend with All Objects
Collision Probability Evolution Trend with All Objects